Wind_Speed
11 11 11 12 13 13 14 15 16 17 17 17 16 17 18 19 18 18 18 18 17 16 15 15 14 12 11 10 10 8 7 5 5 4 3 2 2 2 3 4 5 6 6 7
11 11 11 11 12 12 13 14 16 16 16 17 16 17 18 19 20 19 18 18 17 16 15 15 14 13 12 11 10 10 8 7 6 5 4 3 2 3 3 4 5 6 6 7
9 9 10 10 10 11 13 14 15 15 16 16 16 17 17 18 20 20 19 18 18 17 15 15 14 13 13 12 11 10 9 8 7 6 5 4 3 3 3 4 4 5 6 7
9 9 9 9 9 9 12 13 14 14 15 16 16 17 17 18 20 21 20 18 18 18 16 15 15 14 14 13 12 10 10 9 8 7 6 5 4 3 3 3 4 5 6 7
9 8 8 9 9 8 9 10 12 13 14 15 16 17 16 19 20 20 20 19 20 19 18 17 16 16 15 14 13 12 11 10 9 8 7 6 5 4 3 3 3 4 5 6
9 8 8 8 9 9 9 9 9 11 13 14 15 16 16 17 19 20 20 20 20 20 20 18 17 17 16 15 15 13 12 12 10 10 8 7 6 5 4 3 3 4 4 5
8 8 8 8 8 9 9 9 9 10 10 11 13 15 15 15 18 20 21 21 21 21 21 20 19 18 17 16 15 14 14 13 11 11 9 9 7 6 4 4 3 3 3 4
8 8 8 7 7 7 8 9 10 11 10 10 11 13 13 16 17 19 20 21 20 20 21 20 20 19 18 17 16 15 15 14 13 12 11 10 9 7 5 4 3 3 3 4
9 9 8 8 8 8 7 8 9 10 11 10 11 11 12 15 17 19 21 20 19 19 20 21 21 20 19 18 17 16 16 15 14 14 13 11 10 8 6 5 3 3 2 3
9 9 9 9 9 8 8 8 8 9 10 10 10 11 12 14 16 18 19 20 19 19 19 20 21 21 20 19 18 17 17 16 15 15 14 12 11 9 7 6 4 4 3 2
10 9 8 9 9 9 9 8 8 9 9 9 9 11 12 13 15 17 18 19 20 20 20 19 19 20 21 20 18 17 17 16 15 15 14 13 12 10 9 7 6 5 4 3
10 10 9 8 9 9 9 9 8 8 9 9 10 11 11 12 14 16 18 19 20 20 19 19 19 19 20 20 19 18 17 17 16 16 15 14 13 11 10 9 8 7 5 4
11 10 9 9 9 9 9 9 8 9 9 10 10 10 11 12 14 15 17 18 19 20 20 19 18 19 20 20 19 19 18 17 17 16 16 15 14 12 11 10 9 8 7 6
11 10 9 9 9 9 9 9 9 9 9 9 10 11 12 12 13 15 16 18 18 18 19 19 18 19 20 20 20 19 19 18 17 17 16 16 15 14 12 11 10 9 8 7
12 11 10 10 9 8 9 9 9 9 10 10 11 12 13 13 14 14 16 18 19 18 18 18 18 18 19 20 20 20 19 18 18 18 18 17 16 15 14 12 11 11 10 9
14 12 11 10 10 9 9 9 10 10 10 11 11 11 12 13 14 14 15 16 17 18 18 18 18 17 17 19 20 20 20 20 19 19 19 18 17 16 15 13 12 12 11 10
15 13 12 12 11 10 10 10 10 11 11 11 10 11 12 13 13 14 14 15 16 17 17 17 17 17 17 18 21 21 21 20 20 19 19 19 18 17 16 15 14 14 13 12
16 15 14 13 12 11 10 10 10 10 11 11 11 11 12 12 13 13 14 14 15 16 17 17 17 18 18 18 18 20 21 20 19 19 19 18 19 18 17 16 16 15 14 14
18 16 15 14 13 11 11 11 10 10 11 11 11 11 11 11 11 12 13 14 14 15 16 17 17 18 18 18 18 19 20 20 19 18 18 18 19 19 18 18 17 16 16 15
19 18 17 16 15 12 12 12 11 11 11 10 10 10 10 11 11 12 13 13 13 14 14 15 16 17 18 18 18 19 19 19 18 19 19 18 18 18 18 17 17 17 17 16
21 19 18 16 15 13 13 12 12 12 12 12 11 10 10 10 11 12 12 13 13 13 14 15 15 16 16 16 17 18 19 19 19 19 19 18 18 18 18 18 18 18 18 18
22 21 19 17 16 15 14 12 13 13 13 13 13 12 11 11 11 11 11 12 13 13 14 14 15 15 16 17 17 18 19 19 20 20 20 19 19 19 19 19 18 18 18 18
24 22 20 18 16 16 15 15 14 14 14 14 14 13 13 12 11 11 12 13 13 14 14 14 15 15 15 16 18 19 18 19 20 20 20 20 20 20 20 20 20 20 20 20
24 24 22 20 18 18 17 17 16 15 15 14 14 14 14 13 13 12 12 12 14 14 14 14 15 16 16 17 18 18 19 20 20 20 20 20 20 20 21 21 21 20 21 21
25 25 23 21 20 20 19 18 17 16 16 16 15 15 15 14 14 13 13 13 14 14 15 16 16 16 17 17 18 19 19 19 20 20 20 20 20 20 20 20 21 21 21 22
27 25 24 22 22 22 20 19 19 17 17 16 15 15 15 14 14 14 14 14 15 15 15 16 17 17 18 18 19 20 20 20 20 21 21 22 22 22 22 22 22 23 23 24
Wind_Direction
271 268 263 258 254 253 251 245 241 241 237 235 235 234 231 229 226 221 219 216 211 212 209 204 204 204 205 206 203 198 201 201 196 183 173 154 125 98 72 55 52 52 52 46
273 269 265 261 256 252 250 246 238 238 235 234 236 234 233 227 223 221 219 213 207 209 209 204 201 202 207 206 201 201 206 207 200 188 177 167 148 119 90 71 64 59 54 48
274 269 265 260 254 248 245 243 238 237 236 235 233 232 233 230 224 221 216 209 206 207 206 203 203 203 202 201 202 204 204 204 202 190 182 177 162 139 116 91 70 61 56 51
272 268 263 260 254 249 245 244 242 239 238 234 232 232 229 227 223 219 216 209 207 207 204 204 205 203 203 204 205 206 206 206 202 191 187 182 173 155 134 106 77 67 61 55
271 266 260 257 254 250 245 242 241 238 235 233 233 234 230 227 223 218 214 211 208 207 206 207 207 207 207 205 205 206 205 205 201 193 191 187 182 169 150 124 92 77 66 61
266 263 258 253 250 250 248 243 237 236 236 233 234 236 232 226 220 215 212 211 209 208 208 209 209 208 208 207 208 208 206 205 202 197 196 189 185 177 161 139 113 91 76 70
264 257 253 252 249 249 244 240 236 236 239 240 236 235 231 224 218 214 213 211 209 208 209 210 209 208 208 207 209 208 208 205 203 200 196 191 188 182 171 155 133 106 87 77
259 256 252 251 248 246 241 238 237 236 235 239 235 235 231 224 219 214 214 214 212 208 208 208 207 207 206 206 207 208 209 206 205 203 198 194 191 186 178 168 152 129 107 91
250 251 250 249 247 243 241 239 240 237 234 235 238 236 229 221 220 216 215 214 214 211 210 210 208 205 206 206 206 208 210 207 207 206 201 198 195 193 190 185 175 160 140 114
243 248 251 249 247 240 239 235 234 233 233 234 234 230 225 219 217 216 216 216 216 214 213 213 210 206 207 206 206 207 208 208 208 205 204 204 202 200 201 201 197 187 172 147
240 243 247 248 244 241 236 232 229 230 230 228 228 228 224 218 216 216 215 213 210 211 213 212 211 209 207 208 208 210 210 210 208 206 207 207 206 206 207 209 209 202 191 182
239 240 244 248 246 241 235 232 228 227 227 227 225 227 223 218 215 215 212 209 207 209 212 211 210 210 208 209 212 212 212 213 212 210 210 210 210 209 211 213 215 211 206 200
238 239 242 246 246 241 236 233 229 226 225 227 226 224 220 217 214 212 209 207 208 210 212 212 212 212 210 212 215 213 212 214 213 213 214 213 212 212 214 216 217 218 216 214
237 239 239 243 244 241 235 233 231 227 221 222 223 221 220 219 217 213 211 208 208 211 212 213 213 213 212 213 216 216 215 215 214 215 216 216 215 216 218 219 222 224 224 225
235 238 242 242 243 239 233 232 231 229 222 222 223 227 225 223 218 214 212 210 210 211 212 215 216 216 216 216 217 219 220 219 218 218 219 218 218 219 219 221 224 228 230 233
228 235 239 239 240 240 235 235 233 231 229 226 225 224 222 217 214 212 212 211 210 211 213 216 218 218 217 216 217 219 221 222 221 221 221 220 220 221 223 225 228 231 233 237
228 231 233 235 240 239 238 236 234 231 230 224 219 217 217 217 215 212 212 211 210 211 214 217 219 221 223 224 223 221 223 223 221 221 222 223 223 224 226 229 232 235 237 242
225 227 231 234 236 236 237 236 234 231 226 221 219 221 222 222 220 219 216 213 211 212 215 218 219 221 224 226 226 223 224 224 223 222 224 225 225 227 228 232 236 238 240 244
225 227 228 232 234 234 238 235 232 228 223 223 220 221 223 222 220 217 215 214 215 218 219 220 221 220 221 224 226 224 225 225 224 225 227 228 228 228 229 234 238 240 243 246
225 227 230 233 232 231 233 229 227 227 225 223 218 217 218 216 215 214 214 215 216 218 219 221 223 223 223 223 224 224 225 225 227 228 230 231 232 232 233 237 239 243 247 250
226 227 230 230 231 227 224 224 223 220 222 224 223 220 216 210 210 213 215 219 220 220 220 221 222 223 223 223 224 225 227 227 228 230 233 236 236 236 239 241 244 247 250 253
226 228 228 229 229 224 222 221 221 219 220 220 221 219 217 216 215 217 220 223 222 221 222 222 222 222 222 224 226 227 229 228 230 232 234 237 238 241 244 247 249 251 253 255
224 224 225 226 224 223 222 220 221 220 220 220 220 218 219 220 221 223 224 224 223 222 224 225 226 227 226 227 228 229 228 228 232 234 235 238 241 244 247 250 253 253 254 256
224 221 222 223 223 223 221 222 222 221 220 220 219 219 221 224 226 225 228 227 224 225 226 227 229 229 230 230 230 233 233 234 235 237 239 241 244 247 248 251 254 256 256 258
222 220 222 223 223 225 225 223 223 223 224 223 222 223 226 228 230 232 232 231 230 231 230 231 232 233 233 234 236 237 238 238 239 241 242 244 246 248 250 252 255 257 258 259
221 221 223 222 223 225 225 224 223 224 226 224 224 226 229 231 234 235 234 233 233 235 235 234 236 236 236 238 239 241 242 243 244 245 246 247 248 250 253 255 257 259 260 261
Height
5841 5842 5841 5841 5842 5842 5843 5844 5845 5846 5848 5849 5851 5852 5853 5855 5857 5859 5861 5864 5866 5869 5871 5873 5876 5878 5880 5882 5883 5884 5885 5886 5887 5887 5888 5888 5888 5887 5886 5885 5884 5883 5882 5880
5839 5839 5838 5838 5838 5839 5839 5840 5841 5843 5844 5846 5847 5849 5850 5851 5854 5856 5859 5861 5864 5866 5869 5871 5874 5877 5879 5881 5882 5883 5885 5886 5886 5887 5887 5888 5888 5887 5887 5886 5885 5884 5883 5881
5836 5836 5835 5835 5836 5836 5836 5837 5838 5839 5841 5842 5844 5846 5847 5848 5850 5853 5856 5858 5861 5864 5867 5870 5872 5875 5877 5879 5881 5882 5884 5885 5886 5887 5887 5888 5888 5888 5887 5887 5886 5885 5884 5882
5833 5833 5833 5833 5833 5833 5833 5834 5835 5836 5838 5839 5842 5843 5844 5845 5847 5850 5852 5855 5859 5862 5865 5868 5870 5873 5876 5878 5880 5882 5883 5884 5885 5886 5887 5888 5888 5888 5888 5887 5887 5886 5885 5884
5831 5830 5830 5830 5830 5830 5831 5832 5833 5834 5835 5837 5838 5840 5842 5842 5844 5847 5850 5853 5856 5859 5863 5866 5869 5871 5874 5876 5879 5880 5882 5883 5885 5886 5887 5887 5888 5888 5888 5888 5887 5886 5886 5885
5828 5828 5828 5828 5828 5828 5829 5830 5830 5831 5832 5834 5835 5837 5839 5839 5842 5844 5847 5850 5853 5857 5860 5863 5866 5869 5872 5875 5877 5879 5881 5882 5884 5885 5886 5887 5888 5888 5888 5888 5888 5887 5887 5886
5826 5826 5826 5826 5826 5826 5827 5829 5829 5830 5830 5832 5832 5833 5836 5837 5839 5841 5845 5848 5851 5854 5857 5861 5864 5867 5870 5873 5875 5878 5880 5881 5883 5884 5885 5886 5887 5888 5888 5888 5888 5888 5887 5887
5824 5824 5824 5824 5824 5824 5825 5826 5828 5829 5829 5829 5830 5831 5834 5834 5836 5839 5842 5845 5848 5851 5855 5858 5861 5865 5867 5870 5873 5876 5878 5880 5882 5883 5884 5886 5887 5888 5888 5888 5888 5888 5888 5888
5821 5822 5822 5822 5822 5823 5823 5823 5825 5826 5826 5827 5828 5829 5830 5832 5834 5836 5839 5843 5846 5850 5852 5855 5859 5862 5865 5868 5871 5874 5876 5878 5880 5882 5883 5885 5886 5887 5888 5888 5888 5888 5888 5888
5819 5820 5820 5819 5820 5820 5821 5821 5822 5823 5824 5825 5826 5827 5828 5829 5831 5834 5837 5840 5844 5847 5850 5853 5856 5859 5862 5866 5869 5872 5874 5877 5879 5880 5882 5884 5885 5886 5887 5888 5888 5888 5888 5888
5816 5817 5818 5817 5818 5818 5819 5820 5820 5821 5822 5823 5824 5827 5826 5827 5829 5832 5834 5838 5841 5844 5848 5851 5854 5857 5860 5863 5867 5869 5872 5875 5877 5879 5881 5882 5884 5885 5886 5887 5887 5888 5888 5888
5813 5814 5815 5815 5815 5815 5816 5817 5818 5819 5820 5820 5822 5826 5824 5825 5827 5829 5832 5835 5839 5842 5845 5848 5851 5854 5858 5861 5864 5867 5870 5872 5875 5877 5879 5881 5882 5884 5885 5886 5887 5887 5887 5888
5810 5812 5812 5813 5815 5814 5814 5814 5815 5816 5817 5818 5820 5824 5822 5823 5825 5827 5830 5833 5836 5839 5842 5845 5848 5851 5855 5858 5862 5864 5867 5870 5872 5875 5877 5879 5881 5882 5884 5885 5885 5886 5887 5887
5807 5808 5811 5812 5811 5811 5812 5812 5813 5814 5815 5816 5818 5819 5820 5821 5823 5825 5827 5830 5834 5837 5840 5843 5846 5849 5852 5855 5859 5862 5864 5867 5870 5872 5874 5877 5878 5880 5882 5883 5884 5885 5885 5886
5804 5806 5807 5807 5808 5808 5809 5810 5810 5811 5812 5814 5815 5816 5817 5819 5821 5823 5825 5828 5831 5834 5837 5840 5843 5846 5849 5852 5856 5859 5862 5864 5867 5869 5872 5874 5876 5878 5879 5881 5882 5883 5884 5884
5800 5803 5804 5805 5805 5806 5807 5807 5808 5809 5810 5811 5812 5814 5815 5816 5818 5820 5823 5825 5828 5832 5835 5837 5840 5843 5847 5850 5853 5856 5858 5861 5864 5866 5869 5871 5873 5875 5877 5879 5880 5881 5882 5882
5797 5799 5801 5802 5803 5803 5805 5805 5806 5807 5808 5809 5810 5812 5813 5814 5816 5818 5820 5823 5825 5829 5832 5835 5838 5841 5843 5846 5849 5852 5855 5858 5860 5863 5866 5868 5870 5872 5874 5876 5877 5878 5879 5880
5793 5795 5797 5799 5800 5801 5804 5803 5803 5804 5805 5806 5808 5809 5811 5812 5814 5816 5818 5820 5823 5826 5829 5832 5835 5838 5840 5843 5846 5848 5851 5854 5857 5859 5862 5864 5867 5869 5871 5872 5873 5875 5876 5877
5789 5791 5793 5795 5797 5798 5800 5800 5801 5802 5803 5804 5805 5807 5808 5810 5812 5813 5816 5818 5821 5824 5826 5829 5831 5834 5837 5840 5842 5845 5848 5850 5853 5856 5858 5861 5863 5865 5867 5869 5870 5871 5872 5873
5784 5787 5790 5792 5793 5796 5798 5798 5798 5801 5801 5802 5803 5805 5806 5808 5810 5812 5814 5816 5818 5821 5823 5826 5828 5831 5833 5836 5839 5841 5844 5847 5850 5853 5855 5857 5859 5861 5863 5865 5866 5867 5868 5869
5779 5782 5785 5787 5789 5792 5793 5794 5796 5799 5800 5800 5801 5803 5804 5806 5808 5810 5811 5813 5816 5818 5820 5823 5825 5827 5830 5832 5835 5838 5840 5843 5846 5849 5851 5853 5855 5857 5859 5860 5862 5863 5864 5864
5774 5777 5780 5783 5786 5790 5790 5791 5794 5795 5796 5797 5798 5800 5802 5803 5805 5807 5809 5811 5813 5815 5817 5820 5822 5824 5827 5829 5832 5834 5837 5839 5842 5845 5847 5849 5851 5853 5854 5856 5857 5858 5859 5860
5769 5773 5776 5780 5784 5784 5786 5787 5789 5791 5793 5794 5796 5798 5799 5801 5803 5805 5806 5808 5810 5812 5815 5817 5819 5821 5823 5826 5828 5831 5833 5835 5838 5840 5843 5845 5846 5848 5849 5851 5852 5853 5854 5855
5763 5767 5770 5774 5777 5779 5781 5783 5785 5787 5789 5791 5793 5795 5797 5799 5800 5802 5804 5806 5808 5810 5812 5814 5816 5818 5820 5822 5825 5827 5829 5831 5834 5836 5838 5840 5841 5843 5844 5846 5847 5847 5848 5849
5757 5761 5765 5769 5772 5775 5777 5779 5781 5784 5786 5788 5790 5792 5794 5795 5797 5799 5801 5803 5805 5807 5809 5811 5813 5815 5817 5819 5821 5823 5825 5827 5829 5831 5833 5835 5836 5838 5839 5840 5841 5842 5843 5843
5751 5756 5760 5764 5767 5770 5773 5775 5777 5780 5782 5784 5786 5788 5790 5792 5794 5795 5797 5799 5801 5803 5805 5807 5809 5811 5813 5815 5816 5818 5820 5822 5824 5826 5827 5829 5830 5832 5833 5834 5835 5836 5836 5837